7 * 24
多渠道服务支持
STARLINK-11693 是 SpaceX Starlink 卫星互联网项目中的一颗低轨通信卫星。该卫星属于 Starlink 群体的一部分,旨在为全球用户提供高速互联网服务。它运行在约 550 公里的近地轨道上,采用先进的推进系统和激光通信技术,以提升网络连接的稳定性和效率。该卫星的发射有助于扩大 Starlink 在全球范围内的覆盖能力,特别是在偏远和网络基础设施薄弱的地区。
美国
(US)
| 数据来源 | 国际轨道数据 |
| 星历时间: | 2025-11-02T03:17:19+0800 1天前 查看轨道信息 |
| 半长轴: | 6734.492km |
| 偏心率: | 0.0000636 |
| 轨道倾角: | 43.001° |
| 近地点辐角 | 326.346° |
| 升交点赤经 | 342.980° |
| 平近点角 | 33.737° |
| 近地点: | 355.928km |
| 远地点: | 356.786km |
| 周期: | 91.668分钟 |
| 每日圈数: | 15.708893 |